Time,TemperatureF,DewpointF,PressureIn,WindDirection,WindDirectionDegrees,WindSpeedMPH,WindSpeedGustMPH,Humidity,HourlyPrecipIn,Conditions,Clouds,dailyrainin,SoftwareType,DateUTC
2013-04-03 00:00:00,16.0,8.6,29.60,NE,51,1.0,1.0,72,0.00,,,0.00,Wunderground v.1.13,2013-04-03 04:00:00,
2013-04-03 00:30:00,15.3,6.9,29.61,East,88,2.0,2.0,69,0.00,,,0.00,Wunderground v.1.13,2013-04-03 04:30:00,
2013-04-03 01:00:00,14.4,6.7,29.61,East,86,2.0,3.0,71,0.00,,,0.00,Wunderground v.1.13,2013-04-03 05:00:00,
2013-04-03 01:30:00,13.9,4.6,29.61,ESE,102,2.0,2.0,66,0.00,,,0.00,Wunderground v.1.13,2013-04-03 05:30:00,
2013-04-03 02:00:00,13.4,3.1,29.60,East,84,2.0,3.0,63,0.00,,,0.00,Wunderground v.1.13,2013-04-03 06:00:00,
2013-04-03 02:30:00,12.8,2.2,29.60,ENE,66,1.0,7.0,62,0.00,,,0.00,Wunderground v.1.13,2013-04-03 06:30:00,
2013-04-03 03:00:00,12.2,1.7,29.60,East,93,1.0,1.0,62,0.00,,,0.00,Wunderground v.1.13,2013-04-03 07:00:00,
2013-04-03 03:30:00,11.9,1.7,29.59,NE,35,2.0,2.0,63,0.00,,,0.00,Wunderground v.1.13,2013-04-03 07:30:00,
2013-04-03 04:00:00,11.3,3.1,29.59,ENE,67,1.0,1.0,69,0.00,,,0.00,Wunderground v.1.13,2013-04-03 08:00:00,
2013-04-03 04:30:00,11.0,3.1,29.59,ENE,57,1.0,2.0,70,0.00,,,0.00,Wunderground v.1.13,2013-04-03 08:30:00,
2013-04-03 05:00:00,10.5,3.3,29.58,NNE,13,1.0,1.0,72,0.00,,,0.00,Wunderground v.1.13,2013-04-03 09:00:00,
2013-04-03 05:30:00,10.4,4.3,29.59,NNW,341,1.0,1.0,76,0.00,,,0.00,Wunderground v.1.13,2013-04-03 09:30:00,
2013-04-03 06:00:00,10.0,5.1,29.59,North,5,1.0,1.0,80,0.00,,,0.00,Wunderground v.1.13,2013-04-03 10:00:00,
2013-04-03 06:30:00,10.3,5.6,29.59,North,355,1.0,2.0,81,0.00,,,0.00,Wunderground v.1.13,2013-04-03 10:30:00,
2013-04-03 07:00:00,11.2,5.4,29.60,NNW,348,1.0,1.0,77,0.00,,,0.00,Wunderground v.1.13,2013-04-03 11:00:00,
2013-04-03 07:30:00,13.1,5.5,29.60,North,5,2.0,5.0,71,0.00,,,0.00,Wunderground v.1.13,2013-04-03 11:30:00,
2013-04-03 08:00:00,15.1,6.4,29.60,East,82,3.0,6.0,68,0.00,,,0.00,Wunderground v.1.13,2013-04-03 12:00:00,
2013-04-03 08:30:00,17.6,7.1,29.60,East,84,5.0,7.0,63,0.00,,,0.00,Wunderground v.1.13,2013-04-03 12:30:00,
2013-04-03 09:00:00,19.2,9.0,29.60,East,94,6.0,6.0,64,0.00,,,0.00,Wunderground v.1.13,2013-04-03 13:00:00,
2013-04-03 09:30:00,20.9,9.9,29.60,ESE,108,6.0,6.0,62,0.00,,,0.00,Wunderground v.1.13,2013-04-03 13:30:00,
2013-04-03 10:00:00,22.2,10.8,29.60,NE,34,5.0,7.0,61,0.00,,,0.00,Wunderground v.1.13,2013-04-03 14:00:00,
2013-04-03 10:30:00,22.8,11.3,29.61,East,90,5.0,5.0,61,0.00,,,0.00,Wunderground v.1.13,2013-04-03 14:30:00,
2013-04-03 11:00:00,23.4,11.9,29.61,SSE,161,5.0,6.0,61,0.00,,,0.00,Wunderground v.1.13,2013-04-03 15:00:00,
2013-04-03 11:30:00,23.8,11.9,29.60,NE,51,6.0,6.0,60,0.00,,,0.00,Wunderground v.1.13,2013-04-03 15:30:00,
2013-04-03 12:00:00,25.0,11.1,29.60,East,90,7.0,7.0,55,0.00,,,0.00,Wunderground v.1.13,2013-04-03 16:00:00,
2013-04-03 12:30:00,26.5,11.7,29.61,ESE,117,7.0,7.0,53,0.00,,,0.00,Wunderground v.1.13,2013-04-03 16:30:00,
2013-04-03 13:00:00,27.2,12.7,29.61,ENE,73,7.0,7.0,54,0.00,,,0.00,Wunderground v.1.13,2013-04-03 17:00:00,
2013-04-03 13:30:00,27.7,12.8,29.62,SE,133,7.0,7.0,53,0.00,,,0.00,Wunderground v.1.13,2013-04-03 17:30:00,
2013-04-03 14:00:00,28.4,13.0,29.62,East,93,7.0,24.0,52,0.00,,,0.00,Wunderground v.1.13,2013-04-03 18:00:00,
2013-04-03 14:30:00,28.2,13.2,29.63,South,181,7.0,7.0,53,0.00,,,0.00,Wunderground v.1.13,2013-04-03 18:30:00,
2013-04-03 15:00:00,30.1,14.1,29.64,NNW,347,7.0,7.0,51,0.00,,,0.00,Wunderground v.1.13,2013-04-03 19:00:00,
2013-04-03 15:30:00,30.9,13.5,29.65,NE,40,6.0,6.0,48,0.00,,,0.00,Wunderground v.1.13,2013-04-03 19:30:00,
2013-04-03 16:00:00,30.1,14.1,29.65,NNE,22,6.0,6.0,51,0.00,,,0.00,Wunderground v.1.13,2013-04-03 20:00:00,
2013-04-03 16:30:00,32.2,14.7,29.66,East,85,5.0,8.0,48,0.00,,,0.00,Wunderground v.1.13,2013-04-03 20:30:00,
2013-04-03 17:00:00,31.0,14.5,29.67,East,79,6.0,14.0,50,0.00,,,0.00,Wunderground v.1.13,2013-04-03 21:00:00,
2013-04-03 17:30:00,29.9,14.4,29.68,East,80,6.0,8.0,52,0.00,,,0.00,Wunderground v.1.13,2013-04-03 21:30:00,
2013-04-03 18:00:00,28.6,14.5,29.69,SSE,153,5.0,5.0,55,0.00,,,0.00,Wunderground v.1.13,2013-04-03 22:00:00,
2013-04-03 18:30:00,28.2,14.9,29.70,ESE,102,5.0,5.0,57,0.00,,,0.00,Wunderground v.1.13,2013-04-03 22:30:00,
2013-04-03 19:00:00,27.6,15.5,29.72,East,83,5.0,6.0,60,0.00,,,0.00,Wunderground v.1.13,2013-04-03 23:00:00,
2013-04-03 19:30:00,27.3,16.0,29.73,SE,131,6.0,6.0,62,0.00,,,0.00,Wunderground v.1.13,2013-04-03 23:30:00,
2013-04-03 20:00:00,26.9,16.7,29.74,ESE,115,5.0,13.0,65,0.00,,,0.00,Wunderground v.1.13,2013-04-04 00:00:00,
2013-04-03 20:30:00,26.5,18.4,29.76,ESE,115,6.0,6.0,71,0.00,,,0.00,Wunderground v.1.13,2013-04-04 00:30:00,
2013-04-03 21:00:00,25.8,19.9,29.76,ESE,109,4.0,4.0,78,0.00,,,0.00,Wunderground v.1.13,2013-04-04 01:00:00,
2013-04-03 21:30:00,25.7,20.1,29.77,ESE,103,3.0,3.0,79,0.00,,,0.00,Wunderground v.1.13,2013-04-04 01:30:00,
2013-04-03 22:00:00,25.8,20.5,29.77,ENE,71,3.0,13.0,80,0.00,,,0.00,Wunderground v.1.13,2013-04-04 02:00:00,
2013-04-03 22:30:00,25.6,20.3,29.78,East,87,3.0,3.0,80,0.00,,,0.00,Wunderground v.1.13,2013-04-04 02:30:00,
2013-04-03 23:00:00,26.0,19.5,29.78,East,90,2.0,6.0,76,0.00,,,0.00,Wunderground v.1.13,2013-04-04 03:00:00,
2013-04-03 23:30:00,25.9,19.7,29.79,East,95,2.0,5.0,77,0.00,,,0.00,Wunderground v.1.13,2013-04-04 03:30:00,